• In Österreich
  • Länderverzeichnis
  • Für 7 Tage
  • Wassertemperatur
  • Satellitenkarten
  • Wetterkarte
  • News
  • Widgets
  • user-avatar
    Anmelden

    Stündliche Wetter Duchnice

    Heute, 25 September, Dienstag

    Zeit Temperatur Niederschläge Wind Luftdruck Luftfeuchtigkeit
    00:00 +4°C° 0 mm 6 m/S 757 mmHg 73%
    01:00 +5°C° 0 mm 5 m/S 758 mmHg 79%
    02:00 +4°C° 0 mm 6 m/S 758 mmHg 79%
    03:00 +4°C° 0 mm 6 m/S 759 mmHg 79%
    04:00 +4°C° 0 mm 6 m/S 759 mmHg 79%
    05:00 +4°C° 0 mm 6 m/S 760 mmHg 78%
    06:00 +4°C° 0 mm 6 m/S 760 mmHg 77%
    07:00 +4°C° 0 mm 6 m/S 761 mmHg 77%
    08:00 +6°C° 0 mm 7 m/S 761 mmHg 69%
    09:00 +9°C° 0 mm 7 m/S 762 mmHg 61%
    10:00 +10°C° 0 mm 7 m/S 762 mmHg 53%
    11:00 +11°C° 0.1 mm 7 m/S 763 mmHg 50%
    12:00 +11°C° 0.1 mm 7 m/S 763 mmHg 48%
    13:00 +11°C° 0.1 mm 7 m/S 763 mmHg 46%
    14:00 +11°C° 0 mm 7 m/S 763 mmHg 47%
    15:00 +11°C° 0 mm 6 m/S 764 mmHg 47%
    16:00 +11°C° 0 mm 6 m/S 764 mmHg 47%
    17:00 +10°C° 0 mm 5 m/S 765 mmHg 51%
    18:00 +8°C° 0 mm 4 m/S 765 mmHg 54%
    19:00 +8°C° 0 mm 3 m/S 766 mmHg 57%
    20:00 +7°C° 0 mm 3 m/S 766 mmHg 60%
    21:00 +7°C° 0 mm 2 m/S 767 mmHg 62%
    22:00 +6°C° 0 mm 2 m/S 767 mmHg 64%
    23:00 +6°C° 0 mm 2 m/S 768 mmHg 65%

    Morgen, 26 September, Mittwoch

    Zeit Temperatur Niederschläge Wind Luftdruck Luftfeuchtigkeit
    00:00 +5°C° 0 mm 2 m/S 768 mmHg 66%
    01:00 +5°C° 0 mm 2 m/S 768 mmHg 67%
    02:00 +5°C° 0 mm 2 m/S 768 mmHg 68%
    03:00 +5°C° 0 mm 2 m/S 768 mmHg 69%
    04:00 +4°C° 0 mm 3 m/S 768 mmHg 71%
    05:00 +4°C° 0 mm 3 m/S 768 mmHg 72%
    06:00 +5°C° 0 mm 3 m/S 768 mmHg 73%
    07:00 +6°C° 0 mm 4 m/S 768 mmHg 74%
    08:00 +7°C° 0 mm 4 m/S 767 mmHg 66%
    09:00 +9°C° 0 mm 5 m/S 767 mmHg 59%
    10:00 +11°C° 0 mm 6 m/S 767 mmHg 52%
    11:00 +11°C° 0 mm 6 m/S 766 mmHg 50%
    12:00 +13°C° 0 mm 6 m/S 766 mmHg 49%
    13:00 +12°C° 0 mm 7 m/S 765 mmHg 47%
    14:00 +11°C° 0.1 mm 6 m/S 765 mmHg 52%
    15:00 +11°C° 0.1 mm 6 m/S 764 mmHg 56%
    16:00 +10°C° 0.1 mm 5 m/S 763 mmHg 60%
    17:00 +10°C° 0.1 mm 5 m/S 763 mmHg 60%
    18:00 +10°C° 0.1 mm 5 m/S 763 mmHg 60%
    19:00 +10°C° 0.1 mm 5 m/S 762 mmHg 60%
    20:00 +10°C° 0.1 mm 5 m/S 762 mmHg 57%
    21:00 +11°C° 0.1 mm 6 m/S 761 mmHg 54%
    22:00 +11°C° 0.1 mm 6 m/S 761 mmHg 52%
    23:00 +11°C° 0 mm 7 m/S 761 mmHg 52%

    übermorgen, 27 September, Donnerstag

    Zeit Temperatur Niederschläge Wind Luftdruck Luftfeuchtigkeit
    00:00 +11°C° 0 mm 7 m/S 760 mmHg 52%
    01:00 +11°C° 0 mm 7 m/S 760 mmHg 52%
    02:00 +11°C° 0 mm 7 m/S 760 mmHg 54%
    03:00 +11°C° 0 mm 7 m/S 759 mmHg 56%
    04:00 +11°C° 0 mm 7 m/S 759 mmHg 58%
    05:00 +11°C° 0 mm 7 m/S 759 mmHg 61%
    06:00 +11°C° 0 mm 7 m/S 759 mmHg 64%
    07:00 +11°C° 0 mm 8 m/S 759 mmHg 66%
    08:00 +12°C° 0 mm 8 m/S 759 mmHg 66%
    09:00 +15°C° 0 mm 8 m/S 759 mmHg 65%
    10:00 +16°C° 0 mm 8 m/S 759 mmHg 64%
    11:00 +17°C° 0 mm 8 m/S 759 mmHg 63%
    12:00 +18°C° 0 mm 8 m/S 759 mmHg 62%
    13:00 +20°C° 0 mm 7 m/S 759 mmHg 61%
    14:00 +20°C° 0 mm 7 m/S 759 mmHg 63%
    15:00 +19°C° 0 mm 6 m/S 759 mmHg 65%
    16:00 +19°C° 0 mm 5 m/S 759 mmHg 67%
    17:00 +17°C° 0 mm 5 m/S 759 mmHg 72%
    18:00 +17°C° 0 mm 4 m/S 759 mmHg 77%
    19:00 +15°C° 0 mm 4 m/S 759 mmHg 82%
    20:00 +14°C° 0 mm 3 m/S 758 mmHg 83%
    21:00 +14°C° 0 mm 3 m/S 758 mmHg 85%
    22:00 +13°C° 0 mm 3 m/S 758 mmHg 87%
    23:00 +13°C° 0 mm 3 m/S 757 mmHg 88%

    28 September, Freitag

    Zeit Temperatur Niederschläge Wind Luftdruck Luftfeuchtigkeit
    00:00 +13°C° 0 mm 4 m/S 757 mmHg 88%
    01:00 +13°C° 0 mm 4 m/S 756 mmHg 89%
    02:00 +13°C° 0 mm 4 m/S 755 mmHg 87%
    03:00 +13°C° 0 mm 5 m/S 755 mmHg 86%
    04:00 +13°C° 0 mm 5 m/S 754 mmHg 84%
    05:00 +14°C° 0 mm 5 m/S 754 mmHg 79%
    06:00 +14°C° 0 mm 5 m/S 754 mmHg 75%
    07:00 +14°C° 0 mm 6 m/S 753 mmHg 70%
    08:00 +16°C° 0 mm 6 m/S 753 mmHg 65%
    09:00 +17°C° 0 mm 6 m/S 753 mmHg 60%
    10:00 +18°C° 0 mm 7 m/S 753 mmHg 55%
    11:00 +19°C° 0 mm 6 m/S 753 mmHg 56%
    12:00 +19°C° 0 mm 6 m/S 753 mmHg 57%
    13:00 +19°C° 0 mm 6 m/S 753 mmHg 58%
    14:00 +17°C° 0 mm 6 m/S 754 mmHg 60%
    15:00 +16°C° 0 mm 5 m/S 754 mmHg 61%
    16:00 +15°C° 0 mm 4 m/S 754 mmHg 62%
    17:00 +14°C° 0 mm 4 m/S 754 mmHg 63%
    18:00 +13°C° 0 mm 3 m/S 755 mmHg 63%
    19:00 +12°C° 0 mm 3 m/S 755 mmHg 64%
    20:00 +12°C° 0 mm 2 m/S 755 mmHg 66%
    21:00 +12°C° 0 mm 2 m/S 756 mmHg 68%
    22:00 +10°C° 0 mm 2 m/S 756 mmHg 70%
    23:00 +10°C° 0 mm 2 m/S 756 mmHg 72%

    29 September, Samstag

    Zeit Temperatur Niederschläge Wind Luftdruck Luftfeuchtigkeit
    00:00 +10°C° 0 mm 2 m/S 756 mmHg 74%
    01:00 +10°C° 0 mm 2 m/S 757 mmHg 75%
    02:00 +9°C° 0.1 mm 2 m/S 757 mmHg 80%
    03:00 +8°C° 0.1 mm 3 m/S 757 mmHg 85%
    04:00 +8°C° 0.1 mm 3 m/S 757 mmHg 90%
    05:00 +8°C° 0 mm 3 m/S 758 mmHg 89%
    06:00 +8°C° 0 mm 3 m/S 759 mmHg 88%
    07:00 +7°C° 0 mm 4 m/S 759 mmHg 87%
    08:00 +8°C° 0 mm 4 m/S 760 mmHg 79%
    09:00 +10°C° 0 mm 4 m/S 760 mmHg 70%
    10:00 +12°C° 0 mm 5 m/S 761 mmHg 61%
    11:00 +12°C° 0 mm 5 m/S 761 mmHg 54%
    12:00 +13°C° 0 mm 4 m/S 761 mmHg 47%
    13:00 +14°C° 0 mm 4 m/S 761 mmHg 40%
    14:00 +13°C° 0 mm 4 m/S 761 mmHg 40%
    15:00 +13°C° 0 mm 4 m/S 761 mmHg 39%
    16:00 +13°C° 0 mm 3 m/S 761 mmHg 39%
    17:00 +11°C° 0 mm 3 m/S 762 mmHg 42%
    18:00 +10°C° 0 mm 2 m/S 762 mmHg 45%
    19:00 +8°C° 0 mm 2 m/S 762 mmHg 48%
    20:00 +8°C° 0 mm 2 m/S 763 mmHg 50%
    21:00 +7°C° 0 mm 2 m/S 763 mmHg 51%
    22:00 +7°C° 0 mm 2 m/S 763 mmHg 53%
    23:00 +6°C° 0 mm 2 m/S 763 mmHg 55%

    30 September, Sonntag

    Zeit Temperatur Niederschläge Wind Luftdruck Luftfeuchtigkeit
    00:00 +6°C° 0 mm 2 m/S 763 mmHg 57%
    01:00 +6°C° 0 mm 2 m/S 763 mmHg 58%
    02:00 +5°C° 0 mm 2 m/S 763 mmHg 61%
    03:00 +5°C° 0 mm 2 m/S 763 mmHg 63%
    04:00 +5°C° 0 mm 2 m/S 763 mmHg 65%
    05:00 +5°C° 0 mm 2 m/S 762 mmHg 65%
    06:00 +5°C° 0 mm 2 m/S 762 mmHg 64%
    07:00 +6°C° 0 mm 2 m/S 762 mmHg 64%
    08:00 +8°C° 0 mm 2 m/S 762 mmHg 58%
    09:00 +10°C° 0 mm 2 m/S 762 mmHg 51%
    10:00 +11°C° 0 mm 3 m/S 762 mmHg 45%
    11:00 +12°C° 0 mm 3 m/S 761 mmHg 43%
    12:00 +13°C° 0 mm 3 m/S 760 mmHg 40%
    13:00 +14°C° 0 mm 4 m/S 760 mmHg 38%
    14:00 +14°C° 0 mm 3 m/S 759 mmHg 42%
    15:00 +14°C° 0 mm 3 m/S 759 mmHg 45%
    16:00 +13°C° 0 mm 3 m/S 758 mmHg 48%
    17:00 +12°C° 0 mm 3 m/S 758 mmHg 54%
    18:00 +11°C° 0 mm 3 m/S 758 mmHg 59%
    19:00 +9°C° 0 mm 2 m/S 757 mmHg 65%
    20:00 +9°C° 0 mm 3 m/S 757 mmHg 67%
    21:00 +8°C° 0 mm 3 m/S 757 mmHg 69%
    22:00 +8°C° 0 mm 3 m/S 757 mmHg 72%
    23:00 +7°C° 0 mm 3 m/S 756 mmHg 74%
    Mehr zeigen